GIA611 WAAA-WIII

Flight info

Callsign GIA611
Flight time 1h 55m
Altitude 36000
Route NUNLU T6 KURUS
Aircraft B738/M-SDE2E3FGHIRWY/LB1

Departure

Time 2026-04-21 02:01
Airport Sultan Hasanuddin International Airport (WAAA)

Arrival

Time 2026-04-21 03:56
Airport Soekarno-Hatta International Airport (WIII)
Time Latitude Longitude Altitude Speed Heading
2026-04-21 01:40 -5.07715 119.54777 40 ft 0 kts 299°
2026-04-21 01:50 -5.07723 119.54790 40 ft 3 kts 300°
2026-04-21 01:51 -5.07733 119.54809 38 ft 3 kts 300°
2026-04-21 01:51 -5.07744 119.54829 37 ft 3 kts 301°
2026-04-21 01:51 -5.07753 119.54840 37 ft 2 kts 331°
2026-04-21 01:51 -5.07763 119.54842 38 ft 2 kts 12°
2026-04-21 01:52 -5.07780 119.54836 38 ft 3 kts 30°
2026-04-21 01:52 -5.07801 119.54824 40 ft 0 kts 30°
2026-04-21 01:53 -5.07800 119.54824 40 ft 1 kts 31°
2026-04-21 01:54 -5.07787 119.54832 38 ft 4 kts 31°
2026-04-21 01:54 -5.07756 119.54851 40 ft 7 kts 30°
2026-04-21 01:54 -5.07707 119.54879 40 ft 9 kts 30°
2026-04-21 01:54 -5.07651 119.54912 40 ft 9 kts 31°
2026-04-21 01:55 -5.07600 119.54948 40 ft 9 kts 49°
2026-04-21 01:55 -5.07582 119.55004 40 ft 9 kts 92°
2026-04-21 01:55 -5.07607 119.55059 40 ft 9 kts 120°
2026-04-21 01:55 -5.07633 119.55115 40 ft 9 kts 99°
2026-04-21 01:56 -5.07592 119.55150 40 ft 9 kts 20°
2026-04-21 01:56 -5.07533 119.55178 40 ft 10 kts 27°
2026-04-21 01:56 -5.07463 119.55219 40 ft 13 kts 30°
2026-04-21 01:56 -5.07378 119.55268 40 ft 15 kts 30°
2026-04-21 01:57 -5.07278 119.55325 40 ft 18 kts 30°
2026-04-21 01:57 -5.07165 119.55390 40 ft 20 kts 30°
2026-04-21 01:57 -5.07041 119.55462 38 ft 21 kts 30°
2026-04-21 01:57 -5.06907 119.55539 40 ft 23 kts 30°
2026-04-21 01:58 -5.06772 119.55616 40 ft 21 kts 31°
2026-04-21 01:58 -5.06689 119.55666 40 ft 10 kts 33°
2026-04-21 01:58 -5.06665 119.55725 40 ft 10 kts 103°
2026-04-21 01:58 -5.06704 119.55777 41 ft 9 kts 130°
2026-04-21 01:59 -5.06750 119.55822 40 ft 9 kts 154°
2026-04-21 01:59 -5.06797 119.55808 40 ft 6 kts 210°
2026-04-21 01:59 -5.06805 119.55803 40 ft 0 kts 210°
2026-04-21 02:00 -5.06824 119.55792 40 ft 14 kts 211°
2026-04-21 02:00 -5.07133 119.55612 38 ft 88 kts 210°
2026-04-21 02:00 -5.07854 119.55196 41 ft 149 kts 209°
2026-04-21 02:01 -5.08904 119.54592 163 ft 191 kts 211°
2026-04-21 02:01 -5.10042 119.53924 1023 ft 189 kts 212°
2026-04-21 02:01 -5.11166 119.53265 1882 ft 188 kts 210°
2026-04-21 02:01 -5.12378 119.52577 2253 ft 215 kts 213°
2026-04-21 02:02 -5.13605 119.50896 2605 ft 242 kts 253°
2026-04-21 02:02 -5.13811 119.49759 2902 ft 252 kts 265°
2026-04-21 02:02 -5.13871 119.47921 3312 ft 271 kts 270°
2026-04-21 02:02 -5.13848 119.46021 4183 ft 274 kts 271°
2026-04-21 02:03 -5.13813 119.44087 5018 ft 279 kts 271°
2026-04-21 02:03 -5.13783 119.42129 5833 ft 283 kts 271°
2026-04-21 02:03 -5.13760 119.40145 6632 ft 286 kts 271°
2026-04-21 02:03 -5.13742 119.38132 7364 ft 290 kts 271°
2026-04-21 02:04 -5.13730 119.36125 8077 ft 293 kts 271°
2026-04-21 02:04 -5.13723 119.34068 8801 ft 297 kts 271°
2026-04-21 02:04 -5.13718 119.31984 9519 ft 301 kts 271°
2026-04-21 02:04 -5.13714 119.29876 10185 ft 305 kts 271°
2026-04-21 02:05 -5.13711 119.27686 10442 ft 325 kts 270°
2026-04-21 02:05 -5.13710 119.25354 10735 ft 341 kts 270°
2026-04-21 02:05 -5.13709 119.22953 11302 ft 346 kts 270°
2026-04-21 02:05 -5.13709 119.20536 11978 ft 348 kts 270°
2026-04-21 02:06 -5.13709 119.18104 12641 ft 350 kts 270°
2026-04-21 02:06 -5.13708 119.15649 13273 ft 354 kts 270°
2026-04-21 02:06 -5.13707 119.13170 13883 ft 357 kts 270°
2026-04-21 02:06 -5.13706 119.10669 14426 ft 360 kts 270°
2026-04-21 02:07 -5.13705 119.08150 14964 ft 363 kts 270°
2026-04-21 02:07 -5.13704 119.05604 15501 ft 367 kts 270°
2026-04-21 02:07 -5.13703 119.03037 16032 ft 370 kts 270°
2026-04-21 02:07 -5.13701 119.00446 16559 ft 373 kts 270°
2026-04-21 02:08 -5.13700 118.97832 17079 ft 377 kts 270°
2026-04-21 02:08 -5.13699 118.95224 17588 ft 380 kts 270°
2026-04-21 02:08 -5.13698 118.92568 18101 ft 383 kts 270°
2026-04-21 02:08 -5.13697 118.89880 18545 ft 386 kts 270°
2026-04-21 02:09 -5.13696 118.87182 18995 ft 388 kts 270°
2026-04-21 02:09 -5.13693 118.84466 19455 ft 390 kts 270°
2026-04-21 02:09 -5.13690 118.81729 19908 ft 392 kts 270°
2026-04-21 02:09 -5.13689 118.78984 20341 ft 395 kts 270°
2026-04-21 02:10 -5.13690 118.76225 20775 ft 397 kts 269°
2026-04-21 02:10 -5.13691 118.73444 21199 ft 400 kts 269°
2026-04-21 02:10 -5.13692 118.70645 21619 ft 402 kts 269°
2026-04-21 02:10 -5.13694 118.67830 22036 ft 405 kts 269°
2026-04-21 02:11 -5.13696 118.64998 22453 ft 407 kts 269°
2026-04-21 02:11 -5.13697 118.62188 22851 ft 409 kts 269°
2026-04-21 02:11 -5.13699 118.59327 23239 ft 412 kts 269°
2026-04-21 02:11 -5.13700 118.56447 23599 ft 414 kts 269°
2026-04-21 02:12 -5.13701 118.53552 23910 ft 416 kts 269°
2026-04-21 02:12 -5.13701 118.50642 24217 ft 419 kts 269°
2026-04-21 02:12 -5.13702 118.47709 24528 ft 421 kts 269°
2026-04-21 02:12 -5.13702 118.44772 24834 ft 423 kts 269°
2026-04-21 02:13 -5.13703 118.41813 25131 ft 425 kts 269°
2026-04-21 02:13 -5.13703 118.38838 25419 ft 428 kts 269°
2026-04-21 02:13 -5.13703 118.35844 25714 ft 430 kts 269°
2026-04-21 02:13 -5.13703 118.32838 26006 ft 432 kts 270°
2026-04-21 02:14 -5.13703 118.29815 26299 ft 434 kts 270°
2026-04-21 02:14 -5.13703 118.26823 26571 ft 436 kts 270°
2026-04-21 02:14 -5.13703 118.23729 26848 ft 439 kts 270°
2026-04-21 02:14 -5.13703 118.20708 27115 ft 441 kts 270°
2026-04-21 02:15 -5.13702 118.17623 27383 ft 443 kts 270°
2026-04-21 02:15 -5.13702 118.14523 27649 ft 445 kts 270°
2026-04-21 02:15 -5.13701 118.11407 27910 ft 448 kts 270°
2026-04-21 02:15 -5.13700 118.08281 28163 ft 450 kts 270°
2026-04-21 02:16 -5.13699 118.05133 28403 ft 452 kts 270°
2026-04-21 02:16 -5.13697 118.01972 28656 ft 454 kts 270°
2026-04-21 02:16 -5.13696 117.98797 28904 ft 456 kts 270°
2026-04-21 02:16 -5.13696 117.95607 29144 ft 458 kts 270°
2026-04-21 02:17 -5.13695 117.92405 29381 ft 460 kts 270°
2026-04-21 02:17 -5.13693 117.89194 29604 ft 462 kts 270°
2026-04-21 02:17 -5.13695 117.85961 29826 ft 464 kts 269°
2026-04-21 02:17 -5.13811 117.82718 30025 ft 466 kts 266°
2026-04-21 02:18 -5.14027 117.79464 30226 ft 468 kts 265°
2026-04-21 02:18 -5.14280 117.76210 30427 ft 469 kts 265°
2026-04-21 02:18 -5.14540 117.72949 30622 ft 470 kts 265°
2026-04-21 02:18 -5.14792 117.69675 30814 ft 471 kts 265°
2026-04-21 02:19 -5.15034 117.66388 31012 ft 473 kts 266°
2026-04-21 02:19 -5.15266 117.63095 31201 ft 474 kts 266°
2026-04-21 02:19 -5.15490 117.59842 31386 ft 475 kts 266°
2026-04-21 02:19 -5.15715 117.56531 31570 ft 476 kts 266°
2026-04-21 02:20 -5.15939 117.53208 31750 ft 477 kts 266°
2026-04-21 02:20 -5.16163 117.49886 31926 ft 479 kts 266°
2026-04-21 02:20 -5.16388 117.46548 32099 ft 480 kts 266°
2026-04-21 02:20 -5.16614 117.43212 32265 ft 481 kts 266°
2026-04-21 02:21 -5.16841 117.39852 32436 ft 482 kts 266°
2026-04-21 02:21 -5.17068 117.36503 32657 ft 482 kts 266°
2026-04-21 02:21 -5.17296 117.33137 32933 ft 480 kts 266°
2026-04-21 02:21 -5.17521 117.29804 33198 ft 479 kts 266°
2026-04-21 02:22 -5.17746 117.26470 33427 ft 479 kts 266°
2026-04-21 02:22 -5.17971 117.23134 33647 ft 479 kts 266°
2026-04-21 02:22 -5.18196 117.19802 33889 ft 478 kts 266°
2026-04-21 02:22 -5.18420 117.16485 34111 ft 477 kts 266°
2026-04-21 02:23 -5.18643 117.13167 34342 ft 476 kts 266°
2026-04-21 02:23 -5.18867 117.09851 34552 ft 475 kts 266°
2026-04-21 02:23 -5.19087 117.06590 34749 ft 475 kts 266°
2026-04-21 02:23 -5.19309 117.03288 34954 ft 474 kts 266°
2026-04-21 02:24 -5.19569 117.00000 35163 ft 473 kts 264°
2026-04-21 02:24 -5.19927 116.96717 35367 ft 472 kts 263°
2026-04-21 02:24 -5.20332 116.93451 35566 ft 472 kts 263°
2026-04-21 02:24 -5.20752 116.90183 35752 ft 471 kts 262°
2026-04-21 02:25 -5.21168 116.86930 35886 ft 472 kts 263°
2026-04-21 02:25 -5.21982 116.80359 35900 ft 476 kts 263°
2026-04-21 02:26 -5.22773 116.73750 35897 ft 477 kts 263°
2026-04-21 02:26 -5.23551 116.67160 35895 ft 477 kts 263°
2026-04-21 02:27 -5.24331 116.60555 35898 ft 476 kts 263°
2026-04-21 02:27 -5.25105 116.54001 35899 ft 476 kts 263°
2026-04-21 02:28 -5.25882 116.47408 35898 ft 476 kts 263°
2026-04-21 02:28 -5.26659 116.40824 35898 ft 475 kts 263°
2026-04-21 02:29 -5.27434 116.34243 35897 ft 475 kts 263°
2026-04-21 02:29 -5.28209 116.27668 35897 ft 474 kts 263°
2026-04-21 02:30 -5.28981 116.21104 35896 ft 474 kts 263°
2026-04-21 02:30 -5.29753 116.14538 35898 ft 473 kts 263°
2026-04-21 02:31 -5.30518 116.08026 35901 ft 473 kts 263°
2026-04-21 02:31 -5.31288 116.01462 35891 ft 473 kts 263°
2026-04-21 02:32 -5.32057 115.94902 35898 ft 473 kts 263°
2026-04-21 02:32 -5.32825 115.88340 35892 ft 474 kts 263°
2026-04-21 02:33 -5.33593 115.81772 35894 ft 474 kts 263°
2026-04-21 02:33 -5.34361 115.75201 35900 ft 474 kts 263°
2026-04-21 02:34 -5.35128 115.68632 35893 ft 475 kts 263°
2026-04-21 02:34 -5.35891 115.62095 35896 ft 475 kts 263°
2026-04-21 02:35 -5.36659 115.55508 35899 ft 475 kts 263°
2026-04-21 02:35 -5.37426 115.48915 35895 ft 475 kts 263°
2026-04-21 02:36 -5.38193 115.42321 35895 ft 476 kts 263°
2026-04-21 02:36 -5.38960 115.35727 35896 ft 476 kts 263°
2026-04-21 02:37 -5.39726 115.29130 35888 ft 476 kts 263°
2026-04-21 02:37 -5.40491 115.22531 35888 ft 476 kts 263°
2026-04-21 02:38 -5.41255 115.15938 35892 ft 476 kts 263°
2026-04-21 02:38 -5.42019 115.09341 35899 ft 476 kts 263°
2026-04-21 02:39 -5.42777 115.02785 35893 ft 476 kts 263°
2026-04-21 02:39 -5.43539 114.96189 35894 ft 476 kts 263°
2026-04-21 02:40 -5.44301 114.89594 35897 ft 476 kts 263°
2026-04-21 02:40 -5.45062 114.82998 35893 ft 476 kts 263°
2026-04-21 02:41 -5.45821 114.76404 35895 ft 475 kts 263°
2026-04-21 02:41 -5.46580 114.69811 35891 ft 475 kts 263°
2026-04-21 02:42 -5.47338 114.63226 35895 ft 475 kts 263°
2026-04-21 02:42 -5.48095 114.56635 35897 ft 475 kts 263°
2026-04-21 02:43 -5.48852 114.50042 35894 ft 475 kts 263°
2026-04-21 02:43 -5.49603 114.43491 35888 ft 475 kts 263°
2026-04-21 02:44 -5.50358 114.36907 35898 ft 475 kts 263°
2026-04-21 02:44 -5.51111 114.30319 35892 ft 475 kts 263°
2026-04-21 02:45 -5.51864 114.23736 35890 ft 475 kts 263°
2026-04-21 02:45 -5.52617 114.17155 35899 ft 475 kts 263°
2026-04-21 02:46 -5.53369 114.10572 35897 ft 474 kts 264°
2026-04-21 02:46 -5.54121 114.03998 35897 ft 474 kts 264°
2026-04-21 02:47 -5.54873 113.97423 35890 ft 474 kts 263°
2026-04-21 02:47 -5.55654 113.90855 35893 ft 474 kts 263°
2026-04-21 02:48 -5.56443 113.84290 35893 ft 474 kts 263°
2026-04-21 02:48 -5.57231 113.77727 35897 ft 474 kts 263°
2026-04-21 02:49 -5.58015 113.71164 35897 ft 473 kts 263°
2026-04-21 02:49 -5.58798 113.64605 35898 ft 473 kts 263°
2026-04-21 02:50 -5.59580 113.58036 35889 ft 474 kts 263°
2026-04-21 02:50 -5.60361 113.51480 35895 ft 474 kts 263°
2026-04-21 02:51 -5.61143 113.44908 35900 ft 474 kts 264°
2026-04-21 02:51 -5.61923 113.38343 35899 ft 474 kts 264°
2026-04-21 02:52 -5.62703 113.31775 35893 ft 474 kts 264°
2026-04-21 02:52 -5.63481 113.25212 35900 ft 474 kts 264°
2026-04-21 02:53 -5.64254 113.18685 35898 ft 474 kts 264°
2026-04-21 02:53 -5.65031 113.12125 35899 ft 474 kts 264°
2026-04-21 02:54 -5.65808 113.05556 35894 ft 473 kts 264°
2026-04-21 02:54 -5.66582 112.99001 35893 ft 473 kts 264°
2026-04-21 02:55 -5.67357 112.92442 35894 ft 473 kts 264°
2026-04-21 02:55 -5.68129 112.85891 35899 ft 472 kts 264°
2026-04-21 02:56 -5.68900 112.79345 35902 ft 472 kts 264°
2026-04-21 02:56 -5.70054 112.69535 35899 ft 471 kts 264°
2026-04-21 02:57 -5.70822 112.63002 35902 ft 471 kts 264°
2026-04-21 02:57 -5.71589 112.56470 35896 ft 471 kts 264°
2026-04-21 02:58 -5.72225 112.51050 35901 ft 470 kts 264°
2026-04-21 02:58 -5.72989 112.44528 35898 ft 470 kts 264°
2026-04-21 02:59 -5.73876 112.36954 35894 ft 470 kts 264°
2026-04-21 02:59 -5.74638 112.30437 35898 ft 470 kts 264°
2026-04-21 03:00 -5.75275 112.24982 35895 ft 470 kts 264°
2026-04-21 03:00 -5.76035 112.18468 35901 ft 470 kts 264°
2026-04-21 03:01 -5.76791 112.11986 35901 ft 470 kts 264°
2026-04-21 03:01 -5.77551 112.05466 35901 ft 470 kts 264°
2026-04-21 03:02 -5.78310 111.98943 35895 ft 470 kts 264°
2026-04-21 03:02 -5.79068 111.92419 35901 ft 470 kts 264°
2026-04-21 03:03 -5.79826 111.85895 35904 ft 470 kts 264°
2026-04-21 03:03 -5.80583 111.79374 35904 ft 470 kts 264°
2026-04-21 03:04 -5.81338 111.72860 35900 ft 470 kts 264°
2026-04-21 03:04 -5.82092 111.66349 35908 ft 469 kts 264°
2026-04-21 03:05 -5.82845 111.59846 35905 ft 469 kts 264°
2026-04-21 03:05 -5.83596 111.53347 35901 ft 468 kts 264°
2026-04-21 03:06 -5.84346 111.46858 35899 ft 468 kts 264°
2026-04-21 03:06 -5.85095 111.40368 35899 ft 467 kts 264°
2026-04-21 03:07 -5.85842 111.33888 35904 ft 467 kts 264°
2026-04-21 03:07 -5.86590 111.27414 35900 ft 466 kts 264°
2026-04-21 03:08 -5.87334 111.20942 35904 ft 466 kts 265°
2026-04-21 03:08 -5.88051 111.14519 35905 ft 466 kts 265°
2026-04-21 03:09 -5.88765 111.08058 35897 ft 465 kts 265°
2026-04-21 03:09 -5.89481 111.01606 35906 ft 465 kts 265°
2026-04-21 03:10 -5.90198 110.95155 35906 ft 465 kts 265°
2026-04-21 03:10 -5.90916 110.88707 35906 ft 464 kts 265°
2026-04-21 03:11 -5.91632 110.82262 35908 ft 464 kts 265°
2026-04-21 03:11 -5.92347 110.75820 35906 ft 464 kts 265°
2026-04-21 03:12 -5.93061 110.69378 35900 ft 464 kts 265°
2026-04-21 03:12 -5.93775 110.62938 35901 ft 464 kts 265°
2026-04-21 03:13 -5.94487 110.56506 35905 ft 464 kts 265°
2026-04-21 03:13 -5.95200 110.50064 35899 ft 464 kts 265°
2026-04-21 03:14 -5.95908 110.43674 35905 ft 463 kts 265°
2026-04-21 03:14 -5.96565 110.37243 35901 ft 463 kts 269°
2026-04-21 03:15 -5.96637 110.30788 35909 ft 462 kts 272°
2026-04-21 03:15 -5.96552 110.24334 35904 ft 462 kts 272°
2026-04-21 03:16 -5.96498 110.17885 35906 ft 462 kts 272°
2026-04-21 03:16 -5.96483 110.11439 35904 ft 462 kts 271°
2026-04-21 03:17 -5.96482 110.04987 35906 ft 462 kts 271°
2026-04-21 03:17 -5.96482 109.98534 35904 ft 462 kts 271°
2026-04-21 03:18 -5.96480 109.92087 35903 ft 462 kts 271°
2026-04-21 03:18 -5.96476 109.85644 35906 ft 461 kts 271°
2026-04-21 03:19 -5.96471 109.79195 35905 ft 461 kts 271°
2026-04-21 03:19 -5.96466 109.72751 35901 ft 461 kts 271°
2026-04-21 03:20 -5.96460 109.66354 35909 ft 461 kts 271°
2026-04-21 03:20 -5.96453 109.59910 35907 ft 461 kts 271°
2026-04-21 03:21 -5.96445 109.53472 35906 ft 461 kts 271°
2026-04-21 03:21 -5.96436 109.47033 35907 ft 461 kts 271°
2026-04-21 03:22 -5.96427 109.40594 35904 ft 461 kts 271°
2026-04-21 03:22 -5.96417 109.34154 35909 ft 461 kts 271°
2026-04-21 03:23 -5.96407 109.27715 35907 ft 461 kts 271°
2026-04-21 03:23 -5.96395 109.21279 35907 ft 461 kts 271°
2026-04-21 03:24 -5.96383 109.14844 35906 ft 461 kts 271°
2026-04-21 03:24 -5.96370 109.08409 35908 ft 461 kts 271°
2026-04-21 03:25 -5.96357 109.01972 35910 ft 460 kts 271°
2026-04-21 03:25 -5.96342 108.95544 35910 ft 460 kts 271°
2026-04-21 03:26 -5.96328 108.89110 35907 ft 460 kts 271°
2026-04-21 03:26 -5.96312 108.82724 35908 ft 460 kts 271°
2026-04-21 03:27 -5.96295 108.76271 35405 ft 468 kts 271°
2026-04-21 03:27 -5.96287 108.73004 34842 ft 467 kts 271°
2026-04-21 03:27 -5.96279 108.69745 34220 ft 467 kts 271°
2026-04-21 03:28 -5.96270 108.66472 33494 ft 469 kts 271°
2026-04-21 03:28 -5.96262 108.63190 32780 ft 470 kts 271°
2026-04-21 03:28 -5.96253 108.59906 32135 ft 470 kts 271°
2026-04-21 03:28 -5.96245 108.56643 31655 ft 465 kts 271°
2026-04-21 03:29 -5.96236 108.53402 31159 ft 462 kts 271°
2026-04-21 03:29 -5.96227 108.50187 30653 ft 459 kts 271°
2026-04-21 03:29 -5.96217 108.46992 30162 ft 456 kts 271°
2026-04-21 03:29 -5.96210 108.43817 29593 ft 454 kts 271°
2026-04-21 03:30 -5.96207 108.40661 29069 ft 450 kts 271°
2026-04-21 03:30 -5.96204 108.37531 28555 ft 446 kts 271°
2026-04-21 03:30 -5.96202 108.34435 28059 ft 441 kts 271°
2026-04-21 03:30 -5.96200 108.31368 27572 ft 438 kts 271°
2026-04-21 03:31 -5.96197 108.28323 27087 ft 434 kts 271°
2026-04-21 03:31 -5.96194 108.25304 26615 ft 431 kts 271°
2026-04-21 03:31 -5.96191 108.22307 26142 ft 427 kts 271°
2026-04-21 03:31 -5.96188 108.19332 25658 ft 425 kts 271°
2026-04-21 03:32 -5.96185 108.16369 25177 ft 423 kts 271°
2026-04-21 03:32 -5.96182 108.13424 24699 ft 421 kts 270°
2026-04-21 03:32 -5.96178 108.10494 24225 ft 419 kts 270°
2026-04-21 03:32 -5.96175 108.07572 23760 ft 417 kts 270°
2026-04-21 03:33 -5.96172 108.04664 23301 ft 415 kts 270°
2026-04-21 03:33 -5.96169 108.01811 23108 ft 404 kts 270°
2026-04-21 03:33 -5.96164 107.99024 22912 ft 394 kts 271°
2026-04-21 03:33 -5.96161 107.96286 22435 ft 392 kts 270°
2026-04-21 03:34 -5.96159 107.93591 21978 ft 390 kts 270°
2026-04-21 03:34 -5.96159 107.90830 21493 ft 389 kts 270°
2026-04-21 03:34 -5.96160 107.88114 21029 ft 388 kts 270°
2026-04-21 03:34 -5.96160 107.85406 20562 ft 387 kts 270°
2026-04-21 03:35 -5.96161 107.82741 20101 ft 387 kts 270°
2026-04-21 03:35 -5.96161 107.80047 19614 ft 387 kts 270°
2026-04-21 03:35 -5.96162 107.77343 19139 ft 387 kts 270°
2026-04-21 03:35 -5.96162 107.74644 18662 ft 387 kts 270°
2026-04-21 03:36 -5.96163 107.71945 18178 ft 387 kts 270°
2026-04-21 03:36 -5.96164 107.69239 17645 ft 386 kts 270°
2026-04-21 03:36 -5.96163 107.66550 17157 ft 385 kts 270°
2026-04-21 03:36 -5.96162 107.63873 16677 ft 383 kts 270°
2026-04-21 03:37 -5.96161 107.61201 16204 ft 381 kts 270°
2026-04-21 03:37 -5.96161 107.58546 15740 ft 379 kts 270°
2026-04-21 03:37 -5.96161 107.55901 15264 ft 378 kts 270°
2026-04-21 03:37 -5.96161 107.53265 14811 ft 377 kts 270°
2026-04-21 03:38 -5.96161 107.50640 14345 ft 376 kts 270°
2026-04-21 03:38 -5.96162 107.48020 13870 ft 375 kts 270°
2026-04-21 03:38 -5.96162 107.45400 13370 ft 374 kts 270°
2026-04-21 03:38 -5.96163 107.42799 12885 ft 372 kts 270°
2026-04-21 03:39 -5.96164 107.40209 12472 ft 368 kts 270°
2026-04-21 03:39 -5.96164 107.37652 12039 ft 365 kts 270°
2026-04-21 03:39 -5.96164 107.35123 11821 ft 356 kts 270°
2026-04-21 03:39 -5.96163 107.32695 11804 ft 341 kts 270°
2026-04-21 03:40 -5.96161 107.30366 11810 ft 327 kts 270°
2026-04-21 03:40 -5.96157 107.28125 11789 ft 314 kts 270°
2026-04-21 03:40 -5.96152 107.25975 11797 ft 302 kts 270°
2026-04-21 03:40 -5.96148 107.24284 11788 ft 292 kts 270°
2026-04-21 03:41 -5.96144 107.22295 11804 ft 287 kts 270°
2026-04-21 03:41 -5.96140 107.20293 11815 ft 288 kts 270°
2026-04-21 03:41 -5.96137 107.18270 11824 ft 291 kts 270°
2026-04-21 03:41 -5.96134 107.16226 11823 ft 294 kts 270°
2026-04-21 03:42 -5.96131 107.14167 11822 ft 296 kts 270°
2026-04-21 03:42 -5.96128 107.12157 11825 ft 299 kts 270°
2026-04-21 03:42 -5.96126 107.10420 11843 ft 311 kts 270°
2026-04-21 03:42 -5.96123 107.08220 11834 ft 318 kts 270°
2026-04-21 03:43 -5.96119 107.05994 11823 ft 318 kts 270°
2026-04-21 03:43 -5.96114 107.03785 11813 ft 315 kts 270°
2026-04-21 03:43 -5.96109 107.01594 11810 ft 313 kts 270°
2026-04-21 03:43 -5.96103 106.99415 11805 ft 311 kts 270°
2026-04-21 03:44 -5.96096 106.97245 11812 ft 310 kts 270°
2026-04-21 03:44 -5.96090 106.95078 11817 ft 310 kts 270°
2026-04-21 03:44 -5.96085 106.92910 11812 ft 311 kts 270°
2026-04-21 03:44 -5.96080 106.90713 11581 ft 317 kts 270°
2026-04-21 03:45 -5.96075 106.88491 11348 ft 318 kts 270°
2026-04-21 03:45 -5.96070 106.86271 11104 ft 317 kts 270°
2026-04-21 03:45 -5.96065 106.84063 10795 ft 316 kts 270°
2026-04-21 03:45 -5.96059 106.81863 10466 ft 314 kts 270°
2026-04-21 03:46 -5.96058 106.79672 10131 ft 314 kts 268°
2026-04-21 03:46 -5.96478 106.77569 9884 ft 308 kts 249°
2026-04-21 03:46 -5.97267 106.75627 9825 ft 296 kts 247°
2026-04-21 03:46 -5.98073 106.73700 9486 ft 296 kts 247°
2026-04-21 03:47 -5.98854 106.71829 9275 ft 286 kts 247°
2026-04-21 03:47 -5.99615 106.69987 8798 ft 286 kts 247°
2026-04-21 03:47 -6.00372 106.68141 8312 ft 285 kts 247°
2026-04-21 03:47 -6.01122 106.66303 7878 ft 283 kts 247°
2026-04-21 03:48 -6.01865 106.64475 7449 ft 282 kts 248°
2026-04-21 03:48 -6.02601 106.62658 7086 ft 279 kts 248°
2026-04-21 03:48 -6.03322 106.60878 6827 ft 271 kts 247°
2026-04-21 03:48 -6.04022 106.59146 6603 ft 263 kts 248°
2026-04-21 03:49 -6.04701 106.57466 6346 ft 257 kts 248°
2026-04-21 03:49 -6.05369 106.55811 6008 ft 254 kts 248°
2026-04-21 03:49 -6.06031 106.54171 5636 ft 253 kts 248°
2026-04-21 03:49 -6.06690 106.52542 5271 ft 251 kts 248°
2026-04-21 03:50 -6.07345 106.50919 4921 ft 250 kts 248°
2026-04-21 03:50 -6.08009 106.49277 4360 ft 258 kts 248°
2026-04-21 03:50 -6.08682 106.47610 3984 ft 257 kts 247°
2026-04-21 03:50 -6.09667 106.46158 3560 ft 253 kts 214°
2026-04-21 03:51 -6.10696 106.45667 3393 ft 245 kts 191°
2026-04-21 03:51 -6.12354 106.45660 3104 ft 236 kts 166°
2026-04-21 03:51 -6.13831 106.46259 2814 ft 225 kts 146°
2026-04-21 03:51 -6.15424 106.47510 2417 ft 214 kts 139°
2026-04-21 03:52 -6.16171 106.48169 2221 ft 208 kts 134°
2026-04-21 03:52 -6.16909 106.49823 2046 ft 190 kts 93°
2026-04-21 03:52 -6.16718 106.51121 2025 ft 190 kts 72°
2026-04-21 03:52 -6.16409 106.51958 2021 ft 188 kts 69°
2026-04-21 03:53 -6.15922 106.53173 1976 ft 182 kts 68°
2026-04-21 03:53 -6.15472 106.54289 1995 ft 163 kts 68°
2026-04-21 03:53 -6.15048 106.55331 1852 ft 161 kts 68°
2026-04-21 03:53 -6.14630 106.56374 1650 ft 160 kts 68°
2026-04-21 03:54 -6.14221 106.57386 1443 ft 156 kts 68°
2026-04-21 03:54 -6.13815 106.58398 1268 ft 157 kts 68°
2026-04-21 03:54 -6.13406 106.59419 1071 ft 158 kts 68°
2026-04-21 03:54 -6.12998 106.60440 973 ft 155 kts 69°
2026-04-21 03:55 -6.12589 106.61466 716 ft 158 kts 69°
2026-04-21 03:55 -6.12184 106.62485 489 ft 155 kts 68°
2026-04-21 03:55 -6.11769 106.63490 271 ft 159 kts 67°
2026-04-21 03:55 -6.11373 106.64501 67 ft 153 kts 67°
2026-04-21 03:56 -6.11012 106.65413 40 ft 122 kts 69°
2026-04-21 03:56 -6.10747 106.66068 38 ft 80 kts 68°
2026-04-21 03:56 -6.10630 106.66435 38 ft 29 kts 90°
2026-04-21 03:56 -6.10654 106.66605 37 ft 18 kts 101°
2026-04-21 03:57 -6.10716 106.66661 37 ft 12 kts 158°
2026-04-21 03:57 -6.10795 106.66674 35 ft 12 kts 215°
2026-04-21 03:57 -6.10826 106.66597 37 ft 12 kts 249°
2026-04-21 03:57 -6.10856 106.66521 36 ft 12 kts 248°
2026-04-21 03:58 -6.10885 106.66448 37 ft 11 kts 248°
2026-04-21 03:58 -6.10915 106.66374 36 ft 12 kts 248°
2026-04-21 03:58 -6.10951 106.66284 37 ft 15 kts 248°
2026-04-21 03:58 -6.10991 106.66183 38 ft 15 kts 248°
2026-04-21 03:59 -6.11031 106.66086 38 ft 15 kts 248°
2026-04-21 03:59 -6.11068 106.66006 38 ft 11 kts 220°
2026-04-21 03:59 -6.11138 106.66013 39 ft 10 kts 160°
2026-04-21 04:00 -6.11246 106.66098 39 ft 11 kts 100°
2026-04-21 04:00 -6.11258 106.66175 39 ft 11 kts 99°
2026-04-21 04:00 -6.11274 106.66247 39 ft 10 kts 112°
2026-04-21 04:00 -6.11329 106.66286 38 ft 10 kts 159°
2026-04-21 04:01 -6.11393 106.66312 37 ft 10 kts 158°
2026-04-21 04:01 -6.11454 106.66337 37 ft 9 kts 158°
2026-04-21 04:01 -6.11515 106.66361 37 ft 9 kts 158°
2026-04-21 04:01 -6.11573 106.66385 37 ft 9 kts 158°
2026-04-21 04:02 -6.11629 106.66411 37 ft 9 kts 139°
2026-04-21 04:02 -6.11641 106.66467 37 ft 8 kts 76°
2026-04-21 04:02 -6.11621 106.66521 36 ft 8 kts 69°
2026-04-21 04:02 -6.11626 106.66563 37 ft 5 kts 141°
2026-04-21 04:03 -6.11659 106.66575 37 ft 4 kts 158°
2026-04-21 04:03 -6.11685 106.66585 37 ft 3 kts 159°
2026-04-21 04:03 -6.11700 106.66593 37 ft 2 kts 146°
2026-04-21 04:03 -6.11709 106.66602 36 ft 0 kts 135°